Voltar ao catálogo

ARIANE 42P+ DEB

LostHEO
NORAD 34199·DEBRIS·🇫🇷 France

Lançado Oct 28, 1992 de Guiana Space Centre

Loading…

Próximas Passagens (próximas 24 horas)

TLE

ObsoletoSource: Space-Track

Época: Mar 16, 2026, 20:09 UTC

1 34199U 92072AF  26075.84018745 -.00000108  00000-0  00000-0 0  9993
2 34199   6.6456 257.1362 6439273 315.8942   7.7514  2.90735483139083

Acompanhe ARIANE 42P+ DEB em tempo real com AllMySat

Download on the App Store